Regional Weather Roundup
Issued by NWS

Home | Current Version | Previous Version | Text Only | Print | Product List | Glossary Off
Versions: 1 2 3 4 5 6 7 8 9 10 11 12 13 14 15 16 17 18 19 20 21 22 23 24 25 26 27 28 29 30 31 32 33 34 35 36 37 38 39 40 41 42 43 44 45 46 47 48 49 50

000
ASUS43 KIND 252009
RWRIN

WEATHER ROUNDUP FOR INDIANA
NATIONAL WEATHER SERVICE INDIANAPOLIS IN
400 PM EDT SAT OCT 25 2014

NOTE: "FAIR" INDICATES FEW OR NO CLOUDS BELOW 12,000 FEET WITH NO
SIGNIFICANT WEATHER AND/OR OBSTRUCTIONS TO VISIBILITY.

* - STATION DOES NOT REPORT WEATHER SUCH AS PRECIPITATION OR FOG.

+ - STATION NOT QUALITY CONTROLLED BY THE NATIONAL WEATHER SERVICE.
    USE DATA WITH CAUTION...ESPECIALLY DEWPOINT AND RELATIVE
    HUMIDITY OBSERVATIONS.

INZ001>003-010>013-019-020-252100-
NORTHWEST INDIANA

CITY           SKY/WX    TMP DP  RH WIND       PRES   REMARKS
GARY /AIRPORT/ MOSUNNY   75  34  22 W17G29    29.92S
KNOX *+        SUNNY     73  39  29 NW9       29.90S
LA PORTE +     SUNNY     70  40  33 W14G21    29.91F
MICHIGAN CITY+ SUNNY     68  37  32 W9        29.92S
MONTICELLO +   SUNNY     72  51  46 W14       29.92F
RENSSELAER +   SUNNY     73  39  29 W13G18    29.92F
VALPARAISO     SUNNY     73  34  23 W12G23    29.91F

$$

LMZ046-743>745-252100-
SOUTHERN LAKE MICHIGAN

STATION/POSITION TIME  TEMP WIND        PRES
                       AIR  DIR/SP/G
                 (UTC) (F)  (DEG/KT/KT) (MB)
MICHIGAN CITY    2000   61  220/  7/  7   N/A

$$

INZ004-005-014>016-021>024-252100-
NORTH CENTRAL INDIANA

CITY           SKY/WX    TMP DP  RH WIND       PRES   REMARKS
ELKHART        SUNNY     66  34  30 NW15G21   29.90
GOSHEN         SUNNY     68  38  33 W17       29.88S
LOGANSPORT +   SUNNY     70  50  49 W12G18    29.92F
PERU/GRISSOM   SUNNY     69  56  62 W13       29.91F
ROCHESTER +    SUNNY     73  36  25 W10G17    29.90F
SOUTH BEND     NOT AVBL
WARSAW +       SUNNY     68  41  37 NW16G22   29.89S

$$

INZ006>009-017-018-025>027-252100-
NORTHEAST INDIANA

CITY           SKY/WX    TMP DP  RH WIND       PRES   REMARKS
ANGOLA *+        N/A     68  41  37 W16       29.84S
AUBURN +       SUNNY     68  45  42 W13G21    29.86F
FORT WAYNE     MOSUNNY   69  47  45 W18G26    29.88F
HUNTINGTON +   SUNNY    N/A N/A N/A W9G21     29.89S

$$

INZ028-029-035-036-043>045-051>053-252100-
WEST CENTRAL INDIANA

CITY           SKY/WX    TMP DP  RH WIND       PRES   REMARKS
GREENCASTLE +  SUNNY     73  50  43 W5        29.95F
LAFAYETTE      SUNNY     72  51  47 NW13      29.93F
TERRE HAUTE    SUNNY     78  49  35 W9        29.96F

$$

INZ030>032-037>040-046>048-054>057-064-065-252100-
CENTRAL INDIANA

CITY           SKY/WX    TMP DP  RH WIND       PRES   REMARKS
ANDERSON       SUNNY     75  45  33 W17G24    29.92S
CP ATTERBURY + SUNNY     75  52  43 W10       29.94F
FRANKFORT +    SUNNY     74  51  44 W14G20    29.95S
INDIANAPOLIS   PTSUNNY   75  48  38 W18       29.93F
-EAGLE CREEK   SUNNY     75  47  36 NW14G23   29.92F
KOKOMO *+      SUNNY     70  52  52 W17       29.92S
MARION +       SUNNY     70  47  45 NW16G22   29.92S
MT COMFORT *+  SUNNY     75  34  22 W14       29.92F
SHELBYVILLE    SUNNY     77  52  41 W13       29.92F
ZIONSVILLE +   SUNNY     76  45  32 W10G23    29.93S

$$

INZ033-034-041-042-049-050-058-059-252100-
EAST CENTRAL INDIANA

CITY           SKY/WX    TMP DP  RH WIND       PRES   REMARKS
MUNCIE         LGT RAIN  75  48  38 W18G28    29.89F

$$

INZ060-061-067>069-081>083-085>088-252100-
SOUTHWEST INDIANA

CITY           SKY/WX    TMP DP  RH WIND       PRES   REMARKS
EVANSVILLE     SUNNY     79  54  41 VRB5      29.98S
HUNTINGBURG *+ SUNNY     75  61  60 NW7G17    29.98S
WASHINGTON +   SUNNY     77  55  46 W8        29.97R

$$

INZ062-063-066-070>080-084-089>092-252100-
SOUTH CENTRAL AND SOUTHEAST INDIANA

CITY           SKY/WX    TMP DP  RH WIND       PRES   REMARKS
BLOOMINGTON    SUNNY     76  52  43 NW7       29.96F

$$




USA.gov is the U.S. government's official web portal to all federal, state and local government web resources and services.